APSTAR-6C

Last updated on Thu Jul 03 2025 00:02:47 GMT+0000 (Coordinated Universal Time)

1 43450U 18041A 25183.65005270 -.00000310 00000+0 00000+0 0 9997 2 43450 0.0269 324.4920 0000719 324.6269 359.8422 1.00272249 26309
UTC large
Height (km)
Speed (km/s)
/
Latitude / Longitude
Inclination (degrees)
Orbital Period (minutes)
Azimuth
Elevation
Range (km)
Doppler Factor

Next 0 passes for location: London (51.5072 / 0.1276)

Sorry there are no passes over London.